Regional Weather Roundup
Issued by NWS Sioux Falls, SD

Home | Current Version | Previous Version | Graphics & Text | Print | Product List | Glossary On
Versions: 1 2 3 4 5 6 7 8 9 10 11 12 13 14 15 16 17 18 19 20 21 22 23 24 25 26 27 28 29 30 31 32 33 34 35 36 37 38 39 40 41 42 43 44 45 46 47 48 49 50
000
ASUS43 KFSD 242010
RWRFSD

WEATHER ROUNDUP FOR SE SOUTH DAKOTA/SW MINNESOTA/NW IOWA
NATIONAL WEATHER SERVICE SIOUX FALLS SD
300 PM CDT MON APR 24 2017

NOTE: "FAIR" INDICATES FEW OR NO CLOUDS BELOW 12,000 FEET WITH NO
SIGNIFICANT WEATHER AND OR OBSTRUCTIONS TO VISIBILITY.


SDZ038>040-050-052>070-242100-
SOUTHEAST SOUTH DAKOTA

CITY           SKY/WX    TMP DP  RH WIND       PRES   REMARKS
CHAMBERLAIN    CLOUDY    49  40  73 W16       29.59R
HURON          CLOUDY    56  42  59 NW16      29.52R
MADISON        FAIR      64  41  42 SW21G29   29.52F
MITCHELL       CLOUDY    59  42  53 W16       29.53S
SIOUX FALLS    CLOUDY    62  46  55 S7        29.55F
WINNER         CLOUDY    50  38  63 NW15G24   29.59F
YANKTON        CLOUDY    66  43  42 W9        29.50F
$$

MNZ071-072-080-081-089-090-097-098-242100-
SOUTHWEST MINNESOTA

CITY           SKY/WX    TMP DP  RH WIND       PRES   REMARKS
FAIRMONT       CLOUDY    69  29  22 S26G36    29.59F
JACKSON        CLOUDY    64  30  27 S18G31    29.60F
LUVERNE        CLOUDY    57  41  54 NW3       29.56F
MARSHALL       CLOUDY    62  40  44 SW16G24   29.56F
MONTEVIDEO     CLOUDY    66  37  34 SW15G29   29.54S
PIPESTONE      CLOUDY    61  37  41 SW14      29.56F
REDWOOD FALLS  LGT RAIN  60  40  47 S13       29.57F
TRACY          CLOUDY    60  45  58 SW12      29.58F
WINDOM         LGT RAIN  64  28  25 S21       29.57F
WORTHINGTON    CLOUDY    63  35  35 S15G22    29.58R
$$

IAZ001>003-012>014-020>022-031-032-NEZ013-014-SDZ071-242100-
NORTHWEST IOWA

CITY           SKY/WX    TMP DP  RH WIND       PRES   REMARKS
CHEROKEE       CLOUDY    66  36  33 S14G24    29.58S
DENISON        CLOUDY    68  34  28 S22       29.60S
ESTHERVILLE    CLOUDY    69  31  24 S30G43    29.59F
LE MARS        CLOUDY    70  39  32 S25G32    29.55F
ORANGE CITY    CLOUDY    66  39  37 S21G33    29.57R
SHELDON        PTSUNNY   68  36  30 S29G37    29.55S
SIOUX CITY     CLOUDY    69  38  32 S24G33    29.56S
SPENCER        CLOUDY    68  31  25 S29G39    29.59F
STORM LAKE     CLOUDY    70  32  24 S29G38    29.58F
$$

ABBREVIATIONS USED IN REMARKS
   TC - TEMPERATURE IN CELSIUS
  WCI - WIND CHILL INDEX
   HX - HEAT INDEX
  VSB - VISIBILITY





USA.gov is the U.S. government's official web portal to all federal, state and local government web resources and services.